Weather History for Idaho Falls, ID

Change the Weather History Date:

Friday, May 3, 2013

  Actual Average Record
Temperature  
Mean Temperature 50 °F 49 °F  
Max Temperature 67 °F 63 °F 85 °F (1966)
Min Temperature 33 °F 35 °F 26 °F (1953)
Degree Days  
Heating Degree Days 15 16  
Month to date heating degree days 67 48  
Since 1 July heating degree days 7176 7361  
Cooling Degree Days 0 0  
Month to date cooling degree days 0 0  
Year to date cooling degree days 0 0  
Moisture  
Dew Point 20 °F    
Average Humidity 34    
Maximum Humidity 56    
Minimum Humidity 12    
Precipitation  
Precipitation 0.00 in 0.04 in 0.55 in (1993)
Month to date precipitation 0.00 0.14  
Year to date precipitation 1.38 3.49  
Sea Level Pressure  
Sea Level Pressure 30.15 in    
Wind  
Wind Speed 7 mph (North)    
Max Wind Speed 25 mph    
Max Gust Speed 31 mph    
Visibility 10 miles    
Events      
T = Trace of Precipitation, MM = Missing Value Source: NWS Daily Summary

Daily Weather History Graph

Daily Weather History Graph

Search for Another Location

Airport:

Trip Planner

Search our weather history database for the weather conditions in past years. The results will help you decide how hot, cold, wet, or windy it might be!

Date:

Astronomy

May. 03, 2013 Rise Set
Actual Time 6:17 AM MDT 8:33 PM MDT
Civil Twilight 5:46 AM MDT 9:04 PM MDT
Nautical Twilight 5:07 AM MDT 9:44 PM MDT
Astronomical Twilight 4:23 AM MDT 10:27 PM MDT
Moon 2:55 AM MDT (5/3) 2:21 PM MDT (5/3)
Length of Visible Light 15h 18m
Length of Day
14h 15m
Last Quarter, 36% of the Moon is Illuminated
May 3
Last Quarter
May 9
New
May 17
First Quarter
May 24
Full
May 31
Last Quarter

Hourly Weather History & Observations

Time (MDT) Temp. Windchill Dew Point Humidity Pressure Visibility Wind Dir Wind Speed Gust Speed Precip Events Conditions
12:53 AM 34.0 °F 31.0 °F 18.0 °F 52% 30.37 in 10.0 mi NNW 3.5 mph - N/A   Clear
1:53 AM 37.9 °F 35.5 °F 19.9 °F 48% 30.34 in 10.0 mi NNE 3.5 mph - N/A   Clear
2:53 AM 35.1 °F - 19.9 °F 54% 30.32 in 10.0 mi Calm Calm - N/A   Clear
3:53 AM 36.0 °F - 19.9 °F 52% 30.29 in 10.0 mi Calm Calm - N/A   Clear
4:53 AM 39.0 °F 34.8 °F 21.0 °F 49% 30.26 in 10.0 mi North 5.8 mph - N/A   Clear
5:53 AM 37.0 °F 32.4 °F 21.0 °F 52% 30.26 in 10.0 mi North 5.8 mph - N/A   Clear
6:53 AM 35.1 °F 30.1 °F 21.0 °F 57% 30.25 in 10.0 mi North 5.8 mph - N/A   Clear
7:53 AM 41.0 °F 39.0 °F 24.1 °F 51% 30.23 in 10.0 mi North 3.5 mph - N/A   Clear
8:53 AM 48.0 °F - 23.0 °F 37% 30.20 in 10.0 mi Calm Calm - N/A   Clear
9:53 AM 54.0 °F - 19.9 °F 26% 30.18 in 10.0 mi NW 4.6 mph - N/A   Clear
10:53 AM 57.0 °F - 15.1 °F 19% 30.16 in 10.0 mi SE 3.5 mph - N/A   Clear
11:53 AM 59.0 °F - 12.9 °F 16% 30.17 in 10.0 mi Variable 4.6 mph - N/A   Clear
12:53 PM 61.0 °F - 14.0 °F 16% 30.14 in 10.0 mi SSW 4.6 mph - N/A   Clear
1:53 PM 63.0 °F - 14.0 °F 15% 30.09 in 10.0 mi Variable 3.5 mph - N/A   Clear
3:53 PM 64.9 °F - 10.9 °F 12% 30.04 in 10.0 mi Calm Calm - N/A   Clear
4:53 PM 66.0 °F - 12.9 °F 13% 30.01 in 10.0 mi NW 10.4 mph - N/A   Scattered Clouds
5:53 PM 64.0 °F - 12.0 °F 13% 30.01 in 10.0 mi Calm Calm - N/A   Mostly Cloudy
6:53 PM 63.0 °F - 12.9 °F 14% 30.02 in 10.0 mi Calm Calm - N/A   Mostly Cloudy
7:53 PM 62.1 °F - 19.0 °F 19% 30.00 in 10.0 mi NE 5.8 mph - N/A   Mostly Cloudy
8:53 PM 55.9 °F - 30.0 °F 37% 30.01 in 10.0 mi North 25.3 mph 31.1 mph N/A   Mostly Cloudy
9:53 PM 53.1 °F - 32.0 °F 45% 30.02 in 10.0 mi North 18.4 mph - N/A   Clear
10:53 PM 52.0 °F - 33.1 °F 49% 30.01 in 10.0 mi North 19.6 mph - N/A   Overcast
11:53 PM 50.0 °F - 33.1 °F 52% 30.01 in 10.0 mi North 16.1 mph - N/A   Scattered Clouds